FENGYUN 1C DEB, 31452

Orbit data source: Space-Track

FENGYUN 1C DEB, 31452 is space debris in SSO originally from a launch on Mon, 10 May 1999 UTC launched from the Taiyaun Space Center, China (TSC). Fengyun 1C debris stems from the Chinese weather satellite Fengyun-1C, which was intentionally destroyed by a Chinese anti-satellite missile in 2007. This event dramatically increased the amount of space debris, with thousands of trackable fragments posing hazards to satellites and human spaceflight. The Fengyun 1C debris cloud has become a focal point in discussions about space sustainability and the need for international regulations to prevent the creation of new debris.

Loading next visibility...
Identifier
31452, 1999-025BUQ
Orbit
SSO
Country
Flag of CNCN / PRC
Related business
Manufacturer
Unknown
Mission
Spacecraft
Bus & Motor
Unknown
Mass
Unknown
Launch date (UTC)
1999-05-10 (27 years ago)
Launch vehicle
Unknown
Launch site
Taiyaun Space Center, China (TSC)
Object type
Payload
Rocket body
Debris
Shape & HBR
Unknown shape, 0.1 m
Radar Cross Section
Small (<0.1 m²)

Expand to show TLE details & history
Last TLE update: 1 day ago

TLE from 1 day ago
0 FENGYUN 1C DEB
1 31452U 99025BUQ 26207.20562648  .00000555  00000-0  30403-3 0  9998
2 31452  98.6761 192.9019 0039196 201.9209 158.0289 14.15482148993952
Epoch: 2026-07-26T04:56Z
TLE epoch observation values (Epoch: 2026-07-26T04:56:06.127Z)
Latitude
-0.00012°
Longitude
174.9695°
Altitude
869.842 km
Speed
7.404 km/s
True Right ascension
12h 51m 36s
True Declination
0° 00' 00"
Sunlit
Object was in daylight at epoch
Visualization orbit readout
Latitude
Unknown
Longitude
Unknown
Altitude
Unknown
Speed
Unknown
Apparent Right ascension
Unknown
Apparent Declination
Unknown
Sunlit
N/A
Visualization observer readout
Local Sidereal Time
20:29:46
Azimuth
Unknown
Elevation
Unknown
Doppler factor
Unknown
Orbital elements
Apogee altitude
866.119 km
Perigee altitude
809.552 km
Semi-major axis
7,215.972 km
Eccentricity
0.00392
Inclination
98.6761°
RAAN
192.9019°
Arg. of periapsis
201.9209°
True anomaly
158.19619°
Mean anomaly
158.0289°
Eccentric anomaly
158.11262°
Mean motion
3.5408 °/min
Orbital period
101.67 mins
BSTAR
0.00030403
Loading maneuver chart data...
Computing Atmospheric mass density...

Documentation

Showing up to 5 results
|